星链-37315(STARLINK-37315)

导读

STARLINK-37315(NORAD编号68816)是美国太空探索技术公司(SpaceX)星链(Starlink)卫星互联网星座的一颗低轨通信卫星,属于星链大规模组网的组成单元。 星链项目计划在近地轨道部署上万颗卫星,为全球提供高带宽互联网接入服务,覆盖民用、商业及特殊场景通信需求。该卫星运行在近地轨道,作为太空移动基站,承担星链星座的通信转发功能,支撑星座全球覆盖的网络架构,是SpaceX推进星链组网计划的一部分,助力星链完成低轨卫星互联网的全球部署。

Basic Information
目录编号:
68816
目录名称:
STARLINK-37315
国际标识:
2026-089Q
轨道中心:
EARTH
卫星名称:
星链-37315
卫星全名:
星链-37315(STARLINK-37315)
卫星状态:
在轨 (已飞行134 天)
发射日期:
2026-04-23 UTC
国别 :
美国 (US)
星等 :
--
Orbit Information
数据来源 国际轨道数据 AOE轨道数据
星历时间 2026-09-03T10:33:15+0800
1天前
查看轨道信息
2026-08-29T00:00:00+0800
6天前
查看轨道信息
半长轴 6843.7km 6843.748km
偏心率 0.0002453 0.0002325
轨道倾角 97.285° 97.284°
近地点辐角 77.889° 90.377°
升交点赤经 92.118° 86.753°
平近点角 282.263° 139.773°
近地点 463.884km 464.019km
远地点 467.242km 467.203km
周期 93.907分钟 93.908分钟
每日圈数 15.334385 15.334225
Detailed Information
固有亮度:
5
最大亮度:
2.5
卫星平台:
Starlink V1.0
覆盖范围:
全球
运营商:
太空探索技术公司
运营商所在国:
美国
制造商(研发单位):
太空探索技术公司
制造商所在国:
美国
使用方式:
暂无
Satellite Introduction
Starlink 计划是 SpaceX 推出的全球卫星互联网项目,通过发射低轨道卫星,为全球尤其是偏远地区提供高速、低延迟的互联网服务。自 2019 年起,Starlink 已部署数千颗卫星,旨在缩小全球数字鸿沟,推动互联网普及。该项目还为军事、航空等行业提供通信支持,带来广泛经济效益。
2D Orbit Map
3D Orbit Map
Orbit Altitude Analysis Chart
Orbit Inclination Analysis Chart
Orbit Comprehensive Analysis Chart
View Comprehensive Chart
Conjunction Data List
Event ID Objects TCA Miss Dist (km) Collision Risk Probability Collision Risk Index (CRI) Action
CDM_260904-105204-829206-881621
2026-09-04T
10:52:19+0000
2.103 km
极远距离
2.392529E-6 低风险 0.43
CDM_260906-033604-864806-881621
2026-09-06T
03:36:39+0000
2.582 km
极远距离
1.462872E-6 低风险 0.38
CDM_260903-094904-831706-881621
2026-09-03T
09:49:53+0000
2.679 km
极远距离
1.422751E-6 低风险 0.38
CDM_260905-040506-151006-881621
2026-09-05T
04:05:54+0000
2.584 km
极远距离
1.271191E-6 低风险 0.37
CDM_260906-081704-855606-881621
2026-09-06T
08:17:48+0000
2.930 km
极远距离
1.098885E-6 低风险 0.36